Simultaneous Nadir Overpasses (SNOs) Predictions

Prediction of SNOs between LANDSAT-8 and METOP-B Satellite Orbit:

Table of predicted SNOs for the next 14.0 days since TLE Epoch: 9/18/2021
Index Date (LANDSAT-8) Time (LANDSAT-8) Lat,Lon (LANDSAT-8) SZA (LANDSAT-8 ) Date (METOP-B) Time (METOP-B) Lat,Lon (METOP-B) SZA (METOP-B ) Distance(km) Time Diff (sec)
1 09/18/2021 11:26:34 -81.11,-131.78 98.37 09/18/2021 11:26:12 -81.12,-131.73 98.37 1.00 22
2 09/18/2021 12:15:59 81.14, 36.34 81.72 09/18/2021 12:16:51 81.14, 36.27 81.73 1.27 52
3 09/21/2021 07:00:48 -81.13, -65.13 97.23 09/21/2021 07:00:33 -81.12, -65.21 97.24 1.43 15
4 09/21/2021 07:50:13 81.15, 102.97 82.86 09/21/2021 07:51:11 81.15, 103.13 82.90 2.73 58
5 09/24/2021 02:35:03 -81.14, 1.49 96.08 09/24/2021 02:34:54 -81.14, 1.68 96.07 3.25 9
6 09/24/2021 03:24:29 81.14, 169.20 83.95 09/24/2021 03:25:34 81.14, 169.22 83.98 0.50 65
7 09/26/2021 21:20:46 79.42,-116.74 82.01 09/26/2021 21:19:34 79.83,-119.08 82.18 64.87 72
8 09/26/2021 22:09:19 -81.12, 67.72 95.00 09/26/2021 22:09:17 -81.13, 67.81 94.99 1.62 2
9 09/26/2021 22:58:44 81.15,-124.23 85.08 09/26/2021 22:59:56 81.15,-124.33 85.10 1.69 72
10 09/29/2021 16:54:07 81.11, -33.73 86.07 09/29/2021 16:52:59 81.10, -33.90 86.02 2.90 68



Historial Predications of SNOs between LANDSAT-8 and METOP-B
